Regional Weather Roundup
Issued by NWS Upton, NY

Current Version | Previous Version | Graphics & Text | Print | Product List | Glossary Off
Versions: 1 2 3 4 5 6 7 8 9 10 11 12 13 14 15 16 17 18 19 20 21 22 23 24 25 26 27 28 29 30 31 32 33 34 35 36 37 38 39 40 41 42 43 44 45 46 47 48 49 50

000
ASUS41 KOKX 051008
RWROKX

REGIONAL WEATHER ROUNDUP
NATIONAL WEATHER SERVICE NEW YORK NY
600 AM EDT SUN JUL 05 2015

NOTE: "FAIR" INDICATES FEW OR NO CLOUDS BELOW 12,000 FEET WITH NO
SIGNIFICANT WEATHER AND/OR OBSTRUCTIONS TO VISIBILITY.

NYZ071-072-176-178-NJZ106-104-051100-
NEW YORK CITY METRO AREA


CITY           SKY/WX    TMP DP  RH WIND       PRES   REMARKS
CENTRAL PARK   CLOUDY    70  59  68 CALM      30.10R
LAGUARDIA APRT CLOUDY    71  59  65 W5        30.06R
KENNEDY INTL   CLOUDY    71  60  68 W6        30.07R
NEWARK/LIBERTY MOCLDY    68  60  75 W6        30.07R
BRNX BOT. GARD   N/A     68  59  73 SW3       30.09R
TETERBORO      CLOUDY    67  59  75 CALM      30.06R
$$

NYZ177-179-078>081-051100-
LONG ISLAND NEW YORK

CITY           SKY/WX    TMP DP  RH WIND       PRES   REMARKS
FARMINGDALE    PTCLDY    65  59  81 CALM      30.07R
ISLIP          PTCLDY    63  56  78 W6        30.05R
SHIRLEY        CLEAR     62  56  80 W3        30.06S HAZE
WESTHAMPTON    CLEAR     56  54  93 CALM      30.07R
MONTAUK POINT    N/A     65  60  84 CALM      30.06R
$$

NYZ052-065-067-051100-
HUDSON VALLEY

CITY           SKY/WX    TMP DP  RH WIND       PRES   REMARKS
WHITE PLAINS   CLEAR     62  60  93 W3        30.07R FOG
NEWBURGH       NOT AVBL
MONTGOMERY     CLEAR     58  57  97 SW3       30.07R FOG
POUGHKEEPSIE   PTCLDY    56  54  93 CALM      30.06R FOG
ALBANY         PTCLDY    56  54  93 CALM      30.06R FOG
$$

NJZ001-105-106-008-010-013-015-019>022-104-051100-
NEW JERSEY

CITY           SKY/WX    TMP DP  RH WIND       PRES   REMARKS
NEWARK/LIBERTY MOCLDY    68  60  75 W6        30.07R
TETERBORO      CLOUDY    67  59  75 CALM      30.06R
CALDWELL       PTCLDY    63  59  87 CALM      30.08R FOG
MORRISTOWN     PTCLDY    61  57  88 CALM      30.08S FOG
SOMERVILLE     PTCLDY    61  58  90 CALM      30.07R FOG
SUSSEX         MOCLDY    57  56  96 CALM      30.09R FOG
ANDOVER          N/A     59  58  96 CALM      30.09S
TRENTON        MOCLDY    65  59  81 CALM      30.08R
MILLVILLE      CLEAR     65  61  87 N3        30.08R
ATLANTIC CITY  CLOUDY    67  62  84 CALM      30.08R
WRIGHTSTOWN    CLOUDY    66  60  80 CALM      30.06R
TOMS RIVER     MOCLDY    66  59  77 CALM      30.09R
BELMAR         PTCLDY    66  57  72 CALM      30.08R
$$

PAZ047>061-062-071-051100-
EASTERN PENNSYLVANIA

CITY           SKY/WX    TMP DP  RH WIND       PRES   REMARKS
PHILADELPHIA   MOCLDY    68  60  75 CALM      30.09R
ALLENTOWN      PTCLDY    62  59  90 CALM      30.09R FOG
SCRANTON       CLOUDY    63  60  90 SW6       30.10R FOG
$$

CTZ002-004>006-009-010-012-RIZ004-006-007-MAZ004-011-015-051100-
SOUTHERN NEW ENGLAND
 IN CT

CITY           SKY/WX    TMP DP  RH WIND       PRES   REMARKS
BRADLEY INTL   CLEAR     54  52  93 CALM      30.05R FOG
HARTFORD       CLEAR     58  57  97 MISG      30.06R FOG
DANBURY        PTCLDY    54  51  90 CALM      30.09R FOG
WTRBRY/OXFORD  CLEAR     57  52  82 CALM      30.08R FOG
BRIDGEPORT     CLEAR     63  59  87 CALM      30.06R FOG
MERIDEN        FOG       55  53  93 CALM      30.06R VSB 1
NEW HAVEN      CLEAR     57  55  93 CALM      30.06R FOG
CHESTER        FAIR      61  57  88 W3        30.06S
GROTON         CLEAR     59  56  89 CALM      30.05R
WILLIMANTIC    FOG       56  55  97 CALM      30.06R VSB<1/4

 IN RI

CITY           SKY/WX    TMP DP  RH WIND       PRES   REMARKS
PROVIDENCE     PTCLDY    60  56  86 W6        30.04R
BLOCK ISLAND   PTCLDY    63  57  82 W7        30.04R
WESTERLY       CLEAR     57  55  93 CALM      30.05R

 IN MA

CITY           SKY/WX    TMP DP  RH WIND       PRES   REMARKS
BOSTON         PTCLDY    63  57  81 W9        30.02R
WORCESTER      CLEAR     60  55  83 W14       30.04S
WESTFIELD      CLEAR     53  52  96 S3        30.05R FOG
PROVINCETOWN   CLEAR     57   3  11 W8        30.03R
NANTUCKET      CLEAR     61  55  81 W6        30.03R
$$

ANZ330-335-338-340-345-350-353-355-051100-
COASTAL MARINE OBSERVATIONS


STATION/POSITION TIME  SKY/WX   TEMP    WIND        PRES    VSBY  WAVE
                                AIR SEA DIR/SP/G                  HT/PER
                 (UTC)          (F)     (DEG/KT/KT) (MB)    (MI)  (FT/S)
NY HARB ENTRANCE 0950            69 69  270/  6/  6 1017.8          4/ 8
4S FIRE IS       0903               70                N/A           4/ 9
20S FIRE ISLAND  0950            68 69  280/  4/  6 1017.9          4/ 8
GREAT SOUTH BAY  0900            69 74  310/  6/  8   N/A
23SW MTP         0950            67 68  270/  8/ 10 1017.3          4/ 8
HUDSON CANYON    NOT AVBL
KINGS POINT      0900            66 66  180/  1/  1 1017.1
CENTRAL LI SOUND NOT AVBL
EASTERN LI SOUND 0900            63 63  280/  4/  6   N/A
ROBBINS REEF     0900            70     280/  5/  5 1016.8
$$


>>>>>>>>>>>>>>>>>>>>>>>>>>>> KEY <<<<<<<<<<<<<<<<<<<<<<<<<<<
>                                                          <
>     SKY/WX - SKY CONDITION/PRESENT WEATHER               <
>     TMP    - TEMPERATURE IN FAHRENHEIT                   <
>     DP     - DEWPOINT IN FAHRENHEIT                      <
>     RH     - RELATIVE HUMIDITY IN PERCENT                <
>     WIND   - DIRECTION AND SPEED IN MPH                  <
>     PRES   - MEAN SEA LEVEL PRESSURE IN INCHES OF HG     <
>     WCI    - WIND CHILL INDEX                            <
>     VSB    - VISIBILITY IN MILES                         <
>     HX     - HEAT INDEX                                  <
>     TC     - TEMPERATURE IN CELSIUS                      <
>     VRB    - VARIABLE WIND DIRECTION                     <
>                                                          <
>>>>>>>>>>>>>>>>>>>>>>>>>>>> KEY <<<<<<<<<<<<<<<<<<<<<<<<<<<





USA.gov is the U.S. government's official web portal to all federal, state and local government web resources and services.